Location: Unspecified
(0.0000°N, 0.0000°E)
Time: 12:07:24
(UTC+00:00)

Envisat - Pass Details

Date: 12 December 2019
Orbit: 764 x 766 km, 98.1° (Epoch: 11 December)

Event Time Altitude Azimuth Distance (km) Brightness Sun altitude
Rises 05:19:22 0° 47° (NE) 3,217 6.6 -7.8°
Reaches altitude 10° 05:22:49 10° 72° (ENE) 2,295 6.3 -7.0°
Maximum altitude 05:25:21 14° 103° (ESE) 2,035 6.7 -6.5°
Drops below altitude 10° 05:27:53 10° 133° (SE) 2,300 6.9 -5.9°
Sets 05:31:19 0° 158° (SSE) 3,230 7.0 -5.1°
